W5COG Weather Reports


time (UTC)temp
C
wind
direction
speed
KPH
gust
KPH
rain 1hr
cm
rain 24hr
cm
rain mn
cm
humidity
%
barometer
mb
20260906185026 35 189 4.8 12.9 0.00 0.00 0.00 34 1012.9
20260906184526 36 197 8.0 14.5 0.00 0.00 0.00 34 1013.0
20260906183026 37 174 1.6 4.8 0.00 0.00 0.00 31 1013.1
20260906182526 37 150 1.6 4.8 0.00 0.00 0.00 31 1013.1
20260906173026 37 331 6.4 14.5 0.00 0.00 0.00 31 1013.9
20260906172526 37 340 4.8 9.7 0.00 0.00 0.00 32 1014.0
20260906172026 37 295 3.2 8.0 0.00 0.00 0.00 33 1014.1
20260906171526 36 317 6.4 11.3 0.00 0.00 0.00 33 1014.2
20260906171026 36 338 4.8 9.7 0.00 0.00 0.00 33 1014.3
20260906170526 36 320 4.8 12.9 0.00 0.00 0.00 33 1014.4
20260906163026 36 28 3.2 8.0 0.00 0.00 0.00 37 1014.6
20260906162526 35 313 3.2 6.4 0.00 0.00 0.00 38 1014.6
20260906144026 31 327 1.6 4.8 0.00 0.00 0.00 49 1014.4
20260906143526 31 190 0.0 3.2 0.00 0.00 0.00 49 1014.4
20260906125027 25 275 0.0 0.0 0.00 0.00 0.00 67 1013.8
20260906124526 25 235 0.0 1.6 0.00 0.00 0.00 68 1013.8
20260906123026 25 163 0.0 1.6 0.00 0.00 0.00 67 1013.5
20260906122526 25 183 0.0 1.6 0.00 0.00 0.00 67 1013.4
20260906121026 24 118 0.0 1.6 0.00 0.00 0.00 71 1013.3
20260906120526 24 60 0.0 0.0 0.00 0.00 0.00 72 1013.3
20260906114026 25 96 0.0 1.6 0.00 0.00 0.00 73 1013.2
20260906113526 25 116 0.0 0.0 0.00 0.00 0.00 71 1013.1
20260906113026 25 117 0.0 0.0 0.00 0.00 0.00 71 1012.9
20260906112526 25 101 0.0 0.0 0.00 0.00 0.00 71 1012.8
20260906111026 25 83 0.0 0.0 0.00 0.00 0.00 71 1012.8
20260906110526 25 83 0.0 0.0 0.00 0.00 0.00 70 1012.8
20260906102026 25 353 0.0 1.6 0.00 0.00 0.00 72 1012.6
20260906101526 25 323 0.0 0.0 0.00 0.00 0.00 72 1012.6
20260906093026 26 260 0.0 0.0 0.00 0.00 0.00 64 1012.6
20260906092527 26 313 0.0 1.6 0.00 0.00 0.00 63 1012.6
20260906092026 26 297 0.0 0.0 0.00 0.00 0.00 63 1012.5
20260906091526 26 214 0.0 0.0 0.00 0.00 0.00 63 1012.5
20260906091026 26 250 0.0 0.0 0.00 0.00 0.00 64 1012.5
20260906090526 26 10 0.0 0.0 0.00 0.00 0.00 66 1012.4
20260906075526 26 92 1.6 1.6 0.00 0.00 0.00 59 1012.2
20260906075026 26 93 1.6 1.6 0.00 0.00 0.00 59 1012.2
20260906065526 27 84 0.0 3.2 0.00 0.00 0.00 60 1012.2
20260906065026 27 68 0.0 1.6 0.00 0.00 0.00 62 1012.2
20260906063526 27 90 0.0 3.2 0.00 0.00 0.00 64 1012.3
20260906063026 27 70 0.0 1.6 0.00 0.00 0.00 63 1012.3
20260906055526 27 19 0.0 0.0 0.00 0.00 0.00 66 1012.4
20260906055026 27 70 0.0 0.0 0.00 0.00 0.00 65 1012.5
20260906054526 27 76 0.0 1.6 0.00 0.00 0.00 64 1012.4
20260906053026 27 62 0.0 0.0 0.00 0.00 0.00 63 1012.2
20260906052526 27 63 0.0 0.0 0.00 0.00 0.00 63 1012.3
20260906045026 28 39 0.0 1.6 0.00 0.00 0.00 59 1012.0
20260906044526 28 64 1.6 4.8 0.00 0.00 0.00 59 1012.0
20260906043026 28 80 1.6 3.2 0.00 0.00 0.00 62 1012.0
20260906042526 28 107 0.0 1.6 0.00 0.00 0.00 64 1012.0
20260906042026 28 122 0.0 0.0 0.00 0.00 0.00 62 1012.0
20260906041526 28 65 0.0 0.0 0.00 0.00 0.00 59 1012.1
20260906035026 31 31 0.0 1.6 0.00 0.00 0.00 46 1012.0
20260906034526 31 74 0.0 1.6 0.00 0.00 0.00 42 1012.0
20260906034026 31 113 0.0 0.0 0.00 0.00 0.00 42 1012.0
20260906033526 31 128 0.0 3.2 0.00 0.00 0.00 42 1011.9
20260906021026 31 112 1.6 3.2 0.00 0.00 0.00 44 1011.2
20260906020526 31 97 1.6 3.2 0.00 0.00 0.00 44 1011.2
20260906020026 31 99 3.2 4.8 0.00 0.00 0.00 44 1011.1
20260906015526 31 96 1.6 3.2 0.00 0.00 0.00 45 1011.1
20260906015026 31 109 0.0 1.6 0.00 0.00 0.00 45 1011.1
20260906014526 31 101 0.0 1.6 0.00 0.00 0.00 46 1011.1
20260906002526 34 83 1.6 3.2 0.00 0.00 0.00 40 1010.7
20260906002026 34 96 1.6 4.8 0.00 0.00 0.00 39 1010.7
20260905230026 37 116 4.8 8.0 0.00 0.00 0.00 30 1010.5
20260905225526 37 103 6.4 11.3 0.00 0.00 0.00 29 1010.4
20260905223026 37 99 8.0 14.5 0.00 0.00 0.00 29 1010.4
20260905222526 37 70 4.8 14.5 0.00 0.00 0.00 28 1010.4
20260905221026 37 88 8.0 14.5 0.00 0.00 0.00 29 1010.5
20260905220526 37 99 6.4 11.3 0.00 0.00 0.00 29 1010.5
20260905205026 38 101 6.4 12.9 0.00 0.00 0.00 29 1011.4
20260905204526 38 141 6.4 12.9 0.00 0.00 0.00 29 1011.5
20260905204026 37 141 4.8 11.3 0.00 0.00 0.00 30 1011.5
20260905203526 37 84 3.2 11.3 0.00 0.00 0.00 29 1011.7
20260905203026 37 165 4.8 9.7 0.00 0.00 0.00 30 1011.8
20260905202526 36 162 4.8 16.1 0.00 0.00 0.00 32 1012.0